Preview of NWS' New Version of Forecast
This preview is not operational and should not be used for support decisions.

Regional Weather Roundup (RWR)

Issued by National Weather Service (NWS)

                            
000
ASUS43 KLSX 200357
RWRMO 

WEATHER SUMMARY FOR MISSOURI
NATIONAL WEATHER SERVICE SPRINGFIELD MO
1100 PM CDT WED JUN 19 2019

NOTE: "FAIR" INDICATES FEW OR NO CLOUDS BELOW 12,000 FEET WITH NO
       SIGNIFICANT WEATHER AND/OR OBSTRUCTIONS TO VISIBILITY.
       CURRENT SKY AND/OR WEATHER CONDITIONS ARE NOT AVAILABLE FOR
       CHILLICOTHE AND FARMINGTON.

MOZ001>031-035>038-043-044-053-054-200500-
...NORTHERN AND WESTERN MISSOURI...
  
CITY           SKY/WX    TMP DP  RH WIND       PRES   REMARKS
KANSAS CTY INT CLOUDY    68  63  84 NE5       29.74R                  
LEE'S SUMMIT   PTCLDY    67  61  81 NE5       29.74R                  
ST JOSEPH      CLOUDY    67  62  84 CALM      29.74R                  
CHILLICOTHE      N/A     65  64  97 CALM      29.73R                  
     
$$
MOZ066>068-077>081-088>096-101>105-200500-
...SOUTHWEST MISSOURI...
  
CITY           SKY/WX    TMP DP  RH WIND       PRES   REMARKS
SPRINGFIELD    PTCLDY    71  64  78 CALM      29.74R                  
JOPLIN         CLEAR     68  66  93 CALM      29.73S                  
               
$$
MOZ032>034-039>042-045>050-055>058-069>072-200500-
...CENTRAL MISSOURI...  
  
CITY           SKY/WX    TMP DP  RH WIND       PRES   REMARKS
COLUMBIA       NOT AVBL                                               
ROLLA          PTCLDY    69  65  86 W9        29.70R                  
SEDALIA        MOCLDY    64  64 100 NW6       29.74R                  
WARRENSBURG    CLEAR     64  61  88 CALM      29.73R                  
               
$$
MOZ051-052-059>065-200500-
...EAST CENTRAL MISSOURI...
  
CITY           SKY/WX    TMP DP  RH WIND       PRES   REMARKS
ST LOUIS INTL  MOCLDY    74  66  76 W16G23    29.64R                  
                   
$$
MOZ072>076-082>087-097>100-106>115-200500-
...SOUTH CENTRAL AND SOUTHEAST MISSOURI...
  
CITY           SKY/WX    TMP DP  RH WIND       PRES   REMARKS
CAPE GIRARDEAU FAIR      68  65  90 N8        29.67R                  
POPLAR BLUFF     N/A    N/A N/A N/A MISG      29.67R                  
WEST PLAINS    MOCLDY    73  67  81 W3        29.72F                  
                                       
$$